[[{"header":{"parameterUnit":"m.s-1","parameterCategory":1,"la1":30.2991,"la2":30.254,"lo1":-89.0895,"lo2":-89.0444,"dy":0.0017,"dx":0.0017,"nx":28,"ny":28,"refTime":"2025-12-22T03:00:00:Z","depth":0,"parameterNumber":2,"parameterNumberName":"U-component_of_WINDS"},"data":[0,0,0,0,0,0,0,0,0,0,0,0,0,0,0,0,0,0,0,0,0,0,0,0,0,0,0,0,0,0,0,0,0,0,0,0,0,0,0,0,0,0,0,0,0,0,0,0,0,0,0,0,0,0,0,0,0,0,-2.7377,-2.7378,0,-2.7419,-2.7419,-2.742,-2.7401,-2.74,-2.7399,-2.7398,-2.7438,-2.744,-2.7442,0,0,0,0,0,0,0,0,0,0,0,0,0,-2.7279,-2.7281,-2.7377,-2.7378,-2.7378,-2.7419,-2.7419,-2.742,-2.7402,-2.74,-2.7399,-2.7398,-2.7437,-2.744,-2.7442,0,0,0,0,0,0,0,0,0,0,0,0,0,-2.7321,-2.7281,-2.7377,-2.7374,-2.7374,-2.7419,-2.7419,-2.742,-2.7402,-2.74,-2.7399,-2.7397,-2.7436,-2.7439,-2.7442,-2.7491,0,0,-2.7451,-2.7453,0,0,0,0,0,0,0,0,-2.7319,-2.7325,-2.7374,-2.7374,-2.7375,-2.7403,-2.7399,-2.7444,-2.7402,-2.7391,-2.7398,-2.7397,-2.7427,-2.7431,-2.7442,-2.7493,-2.7495,-2.7452,-2.7454,-2.7455,-2.7456,0,0,0,0,0,0,0,-2.7316,-2.7323,-2.7394,-2.7375,-2.7375,-2.737,-2.7374,-2.7407,-2.7417,-2.7392,-2.7391,-2.7396,-2.7427,-2.7439,-2.7443,-2.7495,-2.7452,-2.7454,-2.7456,-2.7457,-2.7588,-2.7589,0,0,0,0,0,0,-2.7313,-2.732,-2.7392,-2.7395,-2.7342,-2.7373,-2.7377,-2.7396,-2.7417,-2.7419,-2.7397,-2.7395,-2.7435,-2.7439,-2.7444,-2.7502,-2.7455,-2.7458,-2.7459,-2.7586,-2.7588,-2.759,0,0,0,0,0,0,-2.7311,-2.732,-2.7391,-2.7357,-2.7366,-2.7376,-2.7397,-2.7397,-2.7409,-2.7421,-2.7422,-2.7408,-2.7434,-2.744,-2.748,-2.7503,-2.7459,-2.7462,-2.7584,-2.7587,-2.7589,-2.7618,0,0,0,0,0,0,-2.7309,-2.7319,-2.7339,-2.7358,-2.7368,-2.7426,-2.7398,-2.7399,-2.7415,-2.7412,-2.7431,-2.7433,-2.7433,-2.7475,-2.7483,-2.7506,-2.7464,-2.7582,-2.7585,-2.7588,-2.7615,-2.7621,-2.7626,0,0,0,0,0,-2.7305,-2.7345,-2.734,-2.7348,-2.7392,-2.7428,-2.7433,-2.7433,-2.7417,-2.7436,-2.7443,-2.7432,-2.75,-2.748,-2.7488,-2.7512,-2.758,-2.7584,-2.7588,-2.7612,-2.762,-2.7626,0,0,0,0,0,0,-2.7326,-2.7347,-2.7342,-2.7389,-2.7407,-2.7424,-2.7448,-2.7442,-2.7464,-2.746,-2.7459,-2.7463,-2.7504,-2.7513,-2.749,-2.7561,-2.7537,-2.7543,-2.7553,-2.7561,-2.7566,-2.7562,-2.7466,0,0,0,0,0,-2.7337,-2.7365,-2.7381,-2.7421,-2.743,-2.7438,-2.7453,-2.7452,-2.747,-2.7477,-2.7488,-2.7505,-2.753,-2.7546,-2.7569,-2.7617,-2.762,-2.7638,-2.7644,-2.7648,-2.7652,-2.7677,-2.7685,-2.7602,-2.7602,-2.7602,0,0,-2.7358,-2.7373,-2.739,-2.7426,-2.7439,-2.7467,-2.7444,-2.7475,-2.7495,-2.7482,-2.7519,-2.7528,-2.7547,-2.759,-2.761,-2.7598,-2.7676,-2.7653,-2.7657,-2.7658,-2.7682,-2.7689,-2.7696,-2.7605,-2.7604,-2.7604,0,0,-2.7411,-2.7426,-2.746,-2.7474,-2.7496,-2.7501,-2.7509,-2.7528,-2.7534,-2.7572,-2.7562,-2.7586,-2.7629,-2.7643,-2.7655,-2.7714,-2.7704,-2.7722,-2.7751,-2.7775,-2.7782,-2.7787,-2.7807,-2.7814,-2.7727,-2.7727,-2.7727,0,-2.7434,-2.7476,-2.7478,-2.751,-2.7525,-2.7516,-2.755,-2.7564,-2.7591,-2.7601,-2.7589,-2.7643,-2.7655,-2.7701,-2.7715,-2.7726,-2.7735,-2.7719,-2.7781,-2.7787,-2.7792,-2.781,-2.7818,-2.7729,-2.7728,-2.7728,-2.7728,0,-2.7503,-2.7533,-2.7558,-2.7586,-2.7604,-2.7637,-2.7643,-2.7661,-2.7659,-2.7665,-2.7704,-2.7718,-2.7744,-2.7755,-2.7753,-2.7801,-2.7793,-2.7781,-2.7757,-2.7802,-2.7819,-2.7826,-2.7731,-2.7731,-2.773,-2.773,0,0,-2.7568,-2.7598,-2.7607,-2.7619,-2.7643,-2.7665,-2.7697,-2.7724,-2.7739,-2.7759,-2.7784,-2.7822,-2.781,-2.7825,-2.7824,-2.7846,-2.7889,-2.783,-2.7831,-2.7839,-2.7941,-2.7949,-2.7957,-2.7884,-2.7885,-2.7886,-2.7939,0,-2.7621,-2.7678,-2.7681,-2.7732,-2.7759,-2.7751,-2.7779,-2.7796,-2.7802,-2.7825,-2.7832,-2.7858,-2.7843,-2.7851,-2.7872,-2.788,-2.7909,-2.7876,-2.7906,-2.7907,-2.7899,-2.7966,-2.7974,-2.8023,-2.7946,-2.7947,-2.7948,0,-2.769,-2.7713,-2.7767,-2.7787,-2.7798,-2.7823,-2.7847,-2.787,-2.7888,-2.7892,-2.7908,-2.7905,-2.7936,-2.7914,-2.7956,-2.7934,-2.7946,-2.7952,-2.7954,-2.7955,-2.7928,-2.7967,-2.8038,-2.8045,-2.7959,-2.7958,-2.7957,0,-2.773,-2.7774,-2.7812,-2.7823,-2.7848,-2.7865,-2.7876,-2.7893,-2.7909,-2.793,-2.794,-2.7965,-2.7977,-2.7996,-2.7999,-2.7982,-2.8041,-2.8019,-2.8043,-2.8043,-2.8054,-2.8053,-2.8127,-2.8066,-2.8066,-2.8066,-2.8066,0,-2.7787,-2.782,-2.783,-2.7853,-2.789,-2.7893,-2.7929,-2.7938,-2.7954,-2.7978,-2.7973,-2.7995,-2.7999,-2.8021,-2.8024,-2.8058,-2.8064,-2.8067,-2.8067,-2.8066,-2.8066,-2.8073,-2.8069,-2.8068,-2.8067,-2.8067,-2.8067,0,-2.7837,-2.7845,-2.7886,-2.7906,-2.7912,-2.7938,-2.7954,-2.7976,-2.7983,-2.8013,-2.802,-2.8031,-2.8057,-2.8063,-2.8094,-2.8096,-2.8136,-2.8133,-2.813,-2.8129,-2.8152,-2.8149,-2.8231,-2.8241,-2.8176,-2.8177,-2.8177,0,-2.7872,-2.7897,-2.792,-2.7937,-2.7949,-2.7975,-2.7991,-2.7995,-2.8012,-2.8036,-2.8054,-2.8081,-2.8102,-2.8145,-2.8154,-2.8178,-2.8175,-2.8202,-2.8178,-2.8177,-2.8173,-2.8171,-2.8172,-2.8206,-2.8207,-2.8207,-2.8208,0,-2.7933,-2.7936,-2.796,-2.7986,-2.8006,-2.8026,-2.8045,-2.8059,-2.8065,-2.8085,-2.8112,-2.8129,-2.8162,-2.8187,-2.8211,-2.8221,-2.8215,-2.8216,-2.8222,-2.8221,-2.8217,-2.8217,-2.814,-2.8213,-2.8213,-2.8212,-2.8212,-2.8212,-2.7975,-2.7996,-2.8016,-2.8043,-2.8059,-2.8077,-2.8098,-2.8108,-2.8132,-2.8159,-2.816,-2.819,-2.8208,-2.824,-2.8251,-2.8274,-2.8265,-2.8275,-2.8277,-2.8279,-2.8281,-2.8215,-2.8279,-2.8279,-2.8278,-2.8278,-2.8278,0,-2.8033,-2.8046,-2.8071,-2.8099,-2.812,-2.8115,-2.8136,-2.8153,-2.818,-2.8198,-2.8219,-2.8251,-2.8276,-2.8288,-2.8313,-2.8328,-2.8326,-2.8334,-2.8332,-2.8334,-2.8288,-2.8279,-2.8336,-2.8336,-2.8336,-2.8336,-2.8336,-2.8336,-2.8066,-2.8103,-2.8108,-2.8152,-2.8164,-2.8194,-2.8206,-2.8223,-2.8237,-2.8273,-2.8294,-2.8302,-2.8318,-2.8343,-2.8366,-2.8369,-2.8377,-2.8386,-2.8388,-2.8344,-2.8338,-2.8332,-2.8323,-2.8389,-2.8389,-2.8432,-2.8432,-2.8432]},{"header":{"parameterUnit":"m.s-1","parameterCategory":1,"la1":30.2991,"la2":30.254,"lo1":-89.0895,"lo2":-89.0444,"dy":0.0017,"dx":0.0017,"nx":28,"ny":28,"refTime":"2025-12-22T03:00:00:Z","depth":0,"parameterNumber":3,"parameterNumberName":"V-component_of_WINDS"},"data":[0,0,0,0,0,0,0,0,0,0,0,0,0,0,0,0,0,0,0,0,0,0,0,0,0,0,0,0,0,0,0,0,0,0,0,0,0,0,0,0,0,0,0,0,0,0,0,0,0,0,0,0,0,0,0,0,0,0,1.8192,1.8192,0,1.8184,1.8184,1.8184,1.8124,1.8122,1.8121,1.8119,1.8112,1.8113,1.8114,0,0,0,0,0,0,0,0,0,0,0,0,0,1.8156,1.8157,1.8192,1.8192,1.8192,1.8184,1.8184,1.8184,1.8124,1.8122,1.812,1.8119,1.8111,1.8113,1.8114,0,0,0,0,0,0,0,0,0,0,0,0,0,1.8162,1.8157,1.8192,1.8161,1.8158,1.8184,1.8184,1.8184,1.8124,1.8122,1.812,1.8118,1.8111,1.8113,1.8114,1.817,0,0,1.812,1.8121,0,0,0,0,0,0,0,0,1.8162,1.8164,1.8166,1.8163,1.816,1.8153,1.8169,1.8179,1.8125,1.8137,1.8119,1.8117,1.8127,1.8127,1.8131,1.817,1.8169,1.812,1.8121,1.8122,1.8122,0,0,0,0,0,0,0,1.8162,1.8164,1.8189,1.8166,1.8162,1.8148,1.8146,1.817,1.8145,1.8136,1.8131,1.8131,1.8125,1.8129,1.813,1.8169,1.812,1.8121,1.8123,1.8123,1.8255,1.8257,0,0,0,0,0,0,1.8165,1.8164,1.8189,1.8189,1.8155,1.815,1.8148,1.8157,1.8144,1.814,1.8133,1.8129,1.8127,1.8128,1.813,1.8195,1.8122,1.8123,1.8124,1.8253,1.8255,1.8258,0,0,0,0,0,0,1.8165,1.8168,1.8189,1.8175,1.8177,1.8153,1.8164,1.8158,1.8162,1.8142,1.8138,1.8142,1.8126,1.8127,1.8161,1.8194,1.8124,1.8126,1.825,1.8253,1.8257,1.8326,0,0,0,0,0,0,1.8164,1.8168,1.8189,1.8176,1.8178,1.822,1.8166,1.816,1.8165,1.8159,1.8149,1.8146,1.8124,1.8158,1.8163,1.8195,1.8127,1.8247,1.8251,1.8256,1.8321,1.8331,1.8341,0,0,0,0,0,1.8163,1.8208,1.819,1.8194,1.8203,1.8222,1.8223,1.8197,1.8168,1.8189,1.8177,1.8146,1.819,1.8162,1.8166,1.82,1.8244,1.825,1.8255,1.8316,1.8329,1.8341,0,0,0,0,0,0,1.8225,1.8206,1.8186,1.8228,1.8228,1.8212,1.8237,1.8212,1.822,1.8214,1.8181,1.818,1.8218,1.8212,1.8182,1.8254,1.8212,1.8218,1.8257,1.8269,1.8279,1.828,1.8129,0,0,0,0,0,1.8244,1.8262,1.8244,1.8283,1.8284,1.8261,1.8268,1.8249,1.8247,1.8246,1.8236,1.8235,1.8249,1.8259,1.827,1.8319,1.8317,1.8345,1.8355,1.8363,1.8369,1.8397,1.8409,1.8276,1.8276,1.8276,0,0,1.8283,1.8275,1.8287,1.8295,1.8292,1.8312,1.8261,1.8283,1.8297,1.8249,1.8281,1.8273,1.8271,1.8313,1.8331,1.8309,1.8406,1.837,1.8377,1.8379,1.8404,1.8416,1.8427,1.828,1.8279,1.8278,0,0,1.8364,1.8359,1.8392,1.839,1.8387,1.8371,1.838,1.8368,1.8362,1.8393,1.8358,1.8374,1.8398,1.8398,1.8401,1.8484,1.8457,1.8489,1.8542,1.8569,1.8579,1.8588,1.8619,1.863,1.8495,1.8495,1.8495,0,1.8413,1.844,1.8412,1.8437,1.8442,1.84,1.8433,1.8433,1.8434,1.8439,1.8414,1.8444,1.8439,1.8482,1.8502,1.8506,1.8515,1.849,1.858,1.8589,1.8597,1.8626,1.8637,1.8499,1.8499,1.8498,1.8498,0,1.8501,1.8521,1.8548,1.855,1.8558,1.8587,1.8564,1.8575,1.8555,1.8543,1.8576,1.8569,1.8579,1.8587,1.8568,1.8627,1.8614,1.8585,1.8542,1.8614,1.8641,1.8651,1.8505,1.8503,1.8502,1.8501,0,0,1.862,1.8607,1.8618,1.8619,1.8613,1.8628,1.8655,1.8665,1.8677,1.8679,1.8702,1.8724,1.8698,1.8701,1.8682,1.8705,1.8773,1.8673,1.8673,1.8693,1.884,1.8862,1.8875,1.8755,1.8756,1.8758,1.884,0,1.8699,1.8745,1.8721,1.8771,1.879,1.8751,1.8776,1.8775,1.8765,1.8779,1.8767,1.8784,1.8748,1.875,1.8771,1.876,1.8802,1.8754,1.8777,1.8778,1.8779,1.8889,1.8912,1.899,1.885,1.8852,1.8853,0,1.8796,1.8803,1.8856,1.8847,1.8854,1.8877,1.8885,1.8899,1.8898,1.8889,1.8894,1.8869,1.8896,1.8854,1.8892,1.8859,1.8867,1.8864,1.8866,1.8868,1.882,1.8894,1.9014,1.9026,1.8869,1.8868,1.8867,0,1.888,1.8902,1.8936,1.8938,1.8929,1.8946,1.8943,1.894,1.8948,1.8955,1.896,1.897,1.8976,1.8985,1.8964,1.8935,1.9006,1.8961,1.9,1.9,1.9017,1.9016,1.914,1.9021,1.902,1.902,1.902,0,1.897,1.9004,1.8974,1.8995,1.9032,1.9005,1.9042,1.9035,1.9033,1.9053,1.9019,1.9039,1.9009,1.9026,1.901,1.9044,1.9047,1.9041,1.9036,1.9045,1.9046,1.905,1.9044,1.9023,1.9023,1.9022,1.9021,0,1.9069,1.9051,1.9086,1.9075,1.9073,1.9101,1.9092,1.9111,1.9099,1.9125,1.9129,1.911,1.9128,1.9108,1.9124,1.9113,1.9161,1.9147,1.9161,1.9158,1.9198,1.9195,1.933,1.9347,1.9216,1.9217,1.9218,0,1.9129,1.9154,1.9146,1.9157,1.9157,1.9174,1.9183,1.9157,1.9167,1.9169,1.9189,1.9204,1.9215,1.9246,1.9233,1.9246,1.9234,1.928,1.9235,1.9243,1.9236,1.9235,1.9238,1.929,1.9291,1.9292,1.9293,0,1.9237,1.9227,1.924,1.9251,1.9262,1.9269,1.9273,1.9284,1.9258,1.9271,1.9289,1.9298,1.9315,1.9331,1.9341,1.9338,1.9312,1.9308,1.9318,1.9327,1.9334,1.9332,1.9187,1.9305,1.9304,1.9303,1.9302,1.9302,1.9319,1.934,1.9338,1.9355,1.9356,1.9361,1.938,1.937,1.9385,1.9397,1.9381,1.9404,1.9403,1.9413,1.9414,1.9432,1.9412,1.9426,1.943,1.9434,1.9441,1.9331,1.9433,1.9433,1.9433,1.9433,1.9432,0,1.9426,1.9424,1.9439,1.9447,1.946,1.9434,1.9439,1.9452,1.9472,1.9474,1.9486,1.9508,1.9523,1.9513,1.9526,1.9543,1.9532,1.9548,1.9547,1.9547,1.9457,1.9448,1.9557,1.9557,1.9557,1.9557,1.9557,1.9557,1.9484,1.9519,1.9509,1.9545,1.9541,1.9564,1.9569,1.9574,1.9575,1.9602,1.9615,1.9608,1.9605,1.9618,1.9632,1.9628,1.9635,1.9656,1.9649,1.9565,1.9553,1.9541,1.9532,1.9658,1.9658,1.9737,1.9738,1.9738]}]]